,,PressureMeas_1m,,PRMeasQMR101_1,,RHStat155_1m_1,,SRMeasQMS101R_1m,,TAStat155_1m_1,,GenWind_1,,GenWind_1,
2018-11-10, 00:00:06,VALID,918.021,VALID,0.0,VALID,99.346,VALID,0.002,VALID,19.327,VALID,4.0,VALID,0.0,
2018-11-10, 00:01:06,VALID,918.032,VALID,0.0,VALID,99.375,VALID,0.006,VALID,19.353,VALID,6.0,VALID,0.0,
2018-11-10, 00:02:06,VALID,918.021,VALID,0.0,VALID,99.38,VALID,-0.002,VALID,19.357,VALID,6.0,VALID,0.0,
2018-11-10, 00:03:06,VALID,918.03,VALID,0.0,VALID,99.384,VALID,0.011,VALID,19.329,VALID,27.0,VALID,0.0,
2018-11-10, 00:04:06,VALID,918.019,VALID,0.0,VALID,99.347,VALID,0.004,VALID,19.285,VALID,56.0,VALID,0.0,
2018-11-10, 00:05:06,VALID,918.017,VALID,0.0,VALID,99.354,VALID,0.006,VALID,19.275,VALID,56.0,VALID,0.0,
2018-11-10, 00:06:06,VALID,918.007,VALID,0.0,VALID,99.353,VALID,0.012,VALID,19.286,VALID,340.0,VALID,0.0,
2018-11-10, 00:07:06,VALID,918.006,VALID,0.0,VALID,99.372,VALID,-0.009,VALID,19.317,VALID,320.0,VALID,0.0,
2018-11-10, 00:08:06,VALID,917.992,VALID,0.0,VALID,99.371,VALID,0.015,VALID,19.321,VALID,327.0,VALID,0.0,
2018-11-10, 00:09:06,VALID,917.989,VALID,0.0,VALID,99.368,VALID,0.008,VALID,19.295,VALID,9.0,VALID,0.0,
2018-11-10, 00:10:06,VALID,917.986,VALID,0.0,VALID,99.355,VALID,-0.023,VALID,19.291,VALID,9.0,VALID,0.0,
2018-11-10, 00:11:06,VALID,917.988,VALID,0.0,VALID,99.339,VALID,-0.024,VALID,19.266,VALID,9.0,VALID,0.0,
2018-11-10, 00:12:06,VALID,917.994,VALID,0.0,VALID,99.344,VALID,-0.016,VALID,19.267,VALID,12.0,VALID,0.0,
2018-11-10, 00:13:06,VALID,917.976,VALID,0.0,VALID,99.369,VALID,-0.013,VALID,19.279,VALID,15.0,VALID,0.0,
2018-11-10, 00:14:06,VALID,917.967,VALID,0.0,VALID,99.367,VALID,-0.015,VALID,19.299,VALID,15.0,VALID,0.0,
2018-11-10, 00:15:06,VALID,917.961,VALID,0.0,VALID,99.373,VALID,-0.021,VALID,19.281,VALID,15.0,VALID,0.0,
2018-11-10, 00:16:06,VALID,917.965,VALID,0.0,VALID,99.354,VALID,-0.018,VALID,19.268,VALID,15.0,VALID,0.0,
2018-11-10, 00:17:06,VALID,917.965,VALID,0.0,VALID,99.371,VALID,-0.001,VALID,19.292,VALID,15.0,VALID,0.0,
2018-11-10, 00:18:06,VALID,917.966,VALID,0.0,VALID,99.383,VALID,-0.014,VALID,19.322,VALID,15.0,VALID,0.0,
2018-11-10, 00:19:06,VALID,917.952,VALID,0.0,VALID,99.399,VALID,-0.014,VALID,19.331,VALID,15.0,VALID,0.0,
2018-11-10, 00:20:06,VALID,917.964,VALID,0.0,VALID,99.365,VALID,-0.015,VALID,19.302,VALID,9.0,VALID,0.0,
2018-11-10, 00:21:06,VALID,917.959,VALID,0.0,VALID,99.333,VALID,-0.024,VALID,19.256,VALID,7.0,VALID,0.0,
2018-11-10, 00:22:06,VALID,917.966,VALID,0.0,VALID,99.351,VALID,-0.018,VALID,19.265,VALID,7.0,VALID,0.0,
2018-11-10, 00:23:06,VALID,917.963,VALID,0.0,VALID,99.365,VALID,-0.009,VALID,19.272,VALID,7.0,VALID,0.0,
2018-11-10, 00:24:06,VALID,917.958,VALID,0.0,VALID,99.351,VALID,0.004,VALID,19.246,VALID,5.0,VALID,0.0,
2018-11-10, 00:25:06,VALID,917.956,VALID,0.0,VALID,99.352,VALID,0.018,VALID,19.234,VALID,360.0,VALID,0.0,
2018-11-10, 00:26:06,VALID,917.962,VALID,0.0,VALID,99.373,VALID,0.008,VALID,19.244,VALID,360.0,VALID,0.0,
2018-11-10, 00:27:06,VALID,917.962,VALID,0.0,VALID,99.351,VALID,0.005,VALID,19.202,VALID,3.0,VALID,0.0,
2018-11-10, 00:28:06,VALID,917.953,VALID,0.0,VALID,99.346,VALID,-0.007,VALID,19.184,VALID,6.0,VALID,0.0,
2018-11-10, 00:29:06,VALID,917.95,VALID,0.0,VALID,99.359,VALID,-0.002,VALID,19.199,VALID,345.0,VALID,0.0,
2018-11-10, 00:30:06,VALID,917.93,VALID,0.0,VALID,99.365,VALID,-0.004,VALID,19.212,VALID,345.0,VALID,0.0,
2018-11-10, 00:31:06,VALID,917.932,VALID,0.0,VALID,99.36,VALID,-0.004,VALID,19.198,VALID,346.0,VALID,0.0,
2018-11-10, 00:32:06,VALID,917.93,VALID,0.0,VALID,99.353,VALID,0.002,VALID,19.166,VALID,352.0,VALID,0.0,
2018-11-10, 00:33:06,VALID,917.922,VALID,0.0,VALID,99.348,VALID,-0.019,VALID,19.156,VALID,357.0,VALID,0.0,
2018-11-10, 00:34:06,VALID,917.909,VALID,0.0,VALID,99.359,VALID,-0.018,VALID,19.179,VALID,358.0,VALID,0.0,
2018-11-10, 00:35:06,VALID,917.908,VALID,0.0,VALID,99.349,VALID,0.005,VALID,19.169,VALID,350.0,VALID,0.0,
2018-11-10, 00:36:06,VALID,917.89,VALID,0.0,VALID,99.362,VALID,-0.011,VALID,19.161,VALID,342.0,VALID,0.0,
2018-11-10, 00:37:06,VALID,917.883,VALID,0.0,VALID,99.352,VALID,-0.015,VALID,19.167,VALID,340.0,VALID,0.0,
2018-11-10, 00:38:06,VALID,917.88,VALID,0.0,VALID,99.347,VALID,-0.008,VALID,19.165,VALID,341.0,VALID,0.0,
2018-11-10, 00:39:06,VALID,917.856,VALID,0.0,VALID,99.357,VALID,-0.004,VALID,19.166,VALID,343.0,VALID,0.0,
2018-11-10, 00:40:06,VALID,917.858,VALID,0.0,VALID,99.352,VALID,0.006,VALID,19.15,VALID,348.0,VALID,0.0,
2018-11-10, 00:41:06,VALID,917.846,VALID,0.0,VALID,99.347,VALID,0.011,VALID,19.137,VALID,351.0,VALID,0.0,
2018-11-10, 00:42:06,VALID,917.84,VALID,0.0,VALID,99.355,VALID,-0.005,VALID,19.159,VALID,348.0,VALID,0.0,
2018-11-10, 00:43:06,VALID,917.821,VALID,0.0,VALID,99.348,VALID,0.015,VALID,19.153,VALID,352.0,VALID,0.0,
2018-11-10, 00:44:06,VALID,917.827,VALID,0.0,VALID,99.367,VALID,0.031,VALID,19.169,VALID,341.0,VALID,0.0,
2018-11-10, 00:45:06,VALID,917.808,VALID,0.0,VALID,99.35,VALID,0.016,VALID,19.152,VALID,351.0,VALID,0.0,
2018-11-10, 00:46:06,VALID,917.783,VALID,0.0,VALID,99.355,VALID,0.006,VALID,19.142,VALID,349.0,VALID,0.0,
2018-11-10, 00:47:06,VALID,917.785,VALID,0.0,VALID,99.355,VALID,0.017,VALID,19.145,VALID,343.0,VALID,0.0,
2018-11-10, 00:48:06,VALID,917.772,VALID,0.0,VALID,99.344,VALID,0.015,VALID,19.146,VALID,334.0,VALID,0.0,
2018-11-10, 00:49:06,VALID,917.771,VALID,0.0,VALID,99.35,VALID,0.012,VALID,19.157,VALID,323.0,VALID,0.0,
2018-11-10, 00:50:06,VALID,917.744,VALID,0.0,VALID,99.345,VALID,0.015,VALID,19.169,VALID,313.0,VALID,0.0,
2018-11-10, 00:51:06,VALID,917.734,VALID,0.0,VALID,99.346,VALID,-0.006,VALID,19.183,VALID,319.0,VALID,0.0,
2018-11-10, 00:52:06,VALID,917.711,VALID,0.0,VALID,99.346,VALID,0.005,VALID,19.198,VALID,317.0,VALID,0.0,
2018-11-10, 00:53:06,VALID,917.697,VALID,0.0,VALID,99.339,VALID,0.002,VALID,19.2,VALID,329.0,VALID,0.0,
2018-11-10, 00:54:06,VALID,917.664,VALID,0.0,VALID,99.322,VALID,0.004,VALID,19.199,VALID,335.0,VALID,0.0,
2018-11-10, 00:55:06,VALID,917.662,VALID,0.0,VALID,99.355,VALID,-0.01,VALID,19.202,VALID,327.0,VALID,0.0,
2018-11-10, 00:56:06,VALID,917.629,VALID,0.0,VALID,99.338,VALID,-0.016,VALID,19.2,VALID,319.0,VALID,0.0,
2018-11-10, 00:57:06,VALID,917.622,VALID,0.0,VALID,99.334,VALID,-0.015,VALID,19.205,VALID,329.0,VALID,0.0,
2018-11-10, 00:58:06,VALID,917.622,VALID,0.0,VALID,99.325,VALID,-0.008,VALID,19.212,VALID,335.0,VALID,0.0,
2018-11-10, 00:59:06,VALID,917.598,VALID,0.0,VALID,99.321,VALID,-0.006,VALID,19.224,VALID,350.0,VALID,0.0,
2018-11-10, 01:00:06,VALID,917.567,VALID,0.0,VALID,99.334,VALID,-0.006,VALID,19.224,VALID,333.0,VALID,0.0,
2018-11-10, 01:01:06,VALID,917.566,VALID,0.0,VALID,99.326,VALID,-0.036,VALID,19.226,VALID,321.0,VALID,0.0,
2018-11-10, 01:02:06,VALID,917.556,VALID,0.0,VALID,99.336,VALID,-0.022,VALID,19.234,VALID,341.0,VALID,0.0,
2018-11-10, 01:03:06,VALID,917.545,VALID,0.0,VALID,99.326,VALID,-0.029,VALID,19.244,VALID,336.0,VALID,0.0,
2018-11-10, 01:04:06,VALID,917.534,VALID,0.0,VALID,99.315,VALID,-0.029,VALID,19.253,VALID,332.0,VALID,0.0,
2018-11-10, 01:05:06,VALID,917.518,VALID,0.0,VALID,99.299,VALID,-0.023,VALID,19.256,VALID,329.0,VALID,0.0,
2018-11-10, 01:06:06,VALID,917.5,VALID,0.0,VALID,99.3,VALID,-0.028,VALID,19.26,VALID,328.0,VALID,0.0,
2018-11-10, 01:07:06,VALID,917.476,VALID,0.0,VALID,99.294,VALID,-0.02,VALID,19.267,VALID,338.0,VALID,0.0,
2018-11-10, 01:08:06,VALID,917.474,VALID,0.0,VALID,99.302,VALID,-0.013,VALID,19.273,VALID,318.0,VALID,0.0,
2018-11-10, 01:09:06,VALID,917.454,VALID,0.0,VALID,99.291,VALID,-0.002,VALID,19.289,VALID,327.0,VALID,0.0,
2018-11-10, 01:10:06,VALID,917.417,VALID,0.0,VALID,99.279,VALID,-0.01,VALID,19.292,VALID,301.0,VALID,0.0,
2018-11-10, 01:11:06,VALID,917.409,VALID,0.0,VALID,99.268,VALID,-0.028,VALID,19.304,VALID,303.0,VALID,0.0,
2018-11-10, 01:12:06,VALID,917.391,VALID,0.0,VALID,99.264,VALID,-0.007,VALID,19.316,VALID,290.0,VALID,0.0,
2018-11-10, 01:13:06,VALID,917.381,VALID,0.0,VALID,99.258,VALID,0.004,VALID,19.31,VALID,307.0,VALID,0.0,
2018-11-10, 01:14:06,VALID,917.343,VALID,0.0,VALID,99.239,VALID,-0.006,VALID,19.308,VALID,304.0,VALID,0.0,
2018-11-10, 01:15:06,VALID,917.376,VALID,0.0,VALID,99.223,VALID,-0.005,VALID,19.299,VALID,295.0,VALID,0.0,
2018-11-10, 01:16:06,VALID,917.346,VALID,0.0,VALID,99.215,VALID,-0.034,VALID,19.315,VALID,245.0,VALID,0.0,
2018-11-10, 01:17:06,VALID,917.355,VALID,0.0,VALID,99.248,VALID,-0.036,VALID,19.33,VALID,229.0,VALID,0.0,
2018-11-10, 01:18:06,VALID,917.353,VALID,0.0,VALID,99.225,VALID,0.005,VALID,19.314,VALID,251.0,VALID,0.0,
2018-11-10, 01:19:06,VALID,917.313,VALID,0.0,VALID,99.246,VALID,0.007,VALID,19.298,VALID,251.0,VALID,0.0,
2018-11-10, 01:20:06,VALID,917.313,VALID,0.0,VALID,99.239,VALID,-0.009,VALID,19.303,VALID,251.0,VALID,0.0,
2018-11-10, 01:21:06,VALID,917.298,VALID,0.0,VALID,99.255,VALID,-0.013,VALID,19.303,VALID,251.0,VALID,0.0,
2018-11-10, 01:22:06,VALID,917.282,VALID,0.0,VALID,99.229,VALID,-0.015,VALID,19.289,VALID,302.0,VALID,0.0,
2018-11-10, 01:23:06,VALID,917.28,VALID,0.0,VALID,99.232,VALID,0.005,VALID,19.277,VALID,331.0,VALID,0.0,
2018-11-10, 01:24:06,VALID,917.279,VALID,0.0,VALID,99.226,VALID,-0.002,VALID,19.285,VALID,36.0,VALID,0.0,
2018-11-10, 01:25:06,VALID,917.27,VALID,0.0,VALID,99.22,VALID,-0.005,VALID,19.289,VALID,298.0,VALID,0.0,
2018-11-10, 01:26:06,VALID,917.258,VALID,0.0,VALID,99.235,VALID,0.019,VALID,19.292,VALID,246.0,VALID,0.0,
2018-11-10, 01:27:06,VALID,917.234,VALID,0.0,VALID,99.219,VALID,0.031,VALID,19.282,VALID,247.0,VALID,0.0,
2018-11-10, 01:28:06,VALID,917.203,VALID,0.0,VALID,99.208,VALID,0.01,VALID,19.274,VALID,311.0,VALID,0.0,
2018-11-10, 01:29:06,VALID,917.191,VALID,0.0,VALID,99.205,VALID,0.021,VALID,19.268,VALID,337.0,VALID,0.0,
2018-11-10, 01:30:06,VALID,917.189,VALID,0.0,VALID,99.196,VALID,0.026,VALID,19.262,VALID,338.0,VALID,0.0,
2018-11-10, 01:31:06,VALID,917.196,VALID,0.0,VALID,99.182,VALID,0.037,VALID,19.255,VALID,256.0,VALID,0.0,
2018-11-10, 01:32:06,VALID,917.153,VALID,0.0,VALID,99.195,VALID,0.035,VALID,19.269,VALID,245.0,VALID,0.0,
2018-11-10, 01:33:06,VALID,917.132,VALID,0.0,VALID,99.195,VALID,0.021,VALID,19.282,VALID,247.0,VALID,0.0,
2018-11-10, 01:34:06,VALID,917.129,VALID,0.0,VALID,99.211,VALID,0.021,VALID,19.299,VALID,282.0,VALID,0.0,
2018-11-10, 01:35:06,VALID,917.113,VALID,0.0,VALID,99.216,VALID,0.018,VALID,19.298,VALID,279.0,VALID,0.0,
2018-11-10, 01:36:06,VALID,917.076,VALID,0.0,VALID,99.19,VALID,0.034,VALID,19.304,VALID,285.0,VALID,0.0,
2018-11-10, 01:37:06,VALID,917.081,VALID,0.0,VALID,99.179,VALID,0.019,VALID,19.289,VALID,302.0,VALID,0.0,
2018-11-10, 01:38:06,VALID,917.067,VALID,0.0,VALID,99.172,VALID,0.025,VALID,19.285,VALID,302.0,VALID,0.0,
2018-11-10, 01:39:06,VALID,917.056,VALID,0.0,VALID,99.15,VALID,0.002,VALID,19.272,VALID,281.0,VALID,0.0,
2018-11-10, 01:40:06,VALID,917.036,VALID,0.0,VALID,99.139,VALID,-0.007,VALID,19.274,VALID,288.0,VALID,0.0,
2018-11-10, 01:41:06,VALID,917.008,VALID,0.0,VALID,99.145,VALID,-0.01,VALID,19.285,VALID,290.0,VALID,0.0,
2018-11-10, 01:42:06,VALID,917.001,VALID,0.0,VALID,99.132,VALID,-0.001,VALID,19.289,VALID,319.0,VALID,0.0,
2018-11-10, 01:43:06,VALID,916.99,VALID,0.0,VALID,99.13,VALID,-0.015,VALID,19.274,VALID,317.0,VALID,0.0,
2018-11-10, 01:44:06,VALID,916.954,VALID,0.0,VALID,99.129,VALID,-0.028,VALID,19.272,VALID,280.0,VALID,0.0,
2018-11-10, 01:45:06,VALID,916.935,VALID,0.0,VALID,99.109,VALID,-0.017,VALID,19.275,VALID,340.0,VALID,0.0,
2018-11-10, 01:46:06,VALID,916.935,VALID,0.0,VALID,99.11,VALID,-0.013,VALID,19.269,VALID,356.0,VALID,0.0,
2018-11-10, 01:47:06,VALID,916.929,VALID,0.0,VALID,99.078,VALID,-0.028,VALID,19.243,VALID,23.0,VALID,0.0,
2018-11-10, 01:48:06,VALID,916.925,VALID,0.0,VALID,99.049,VALID,-0.042,VALID,19.212,VALID,21.0,VALID,0.0,
2018-11-10, 01:49:06,VALID,916.923,VALID,0.0,VALID,99.05,VALID,-0.021,VALID,19.208,VALID,31.0,VALID,0.0,
2018-11-10, 01:50:06,VALID,916.907,VALID,0.0,VALID,99.048,VALID,-0.012,VALID,19.223,VALID,34.0,VALID,0.0,
2018-11-10, 01:51:06,VALID,916.898,VALID,0.0,VALID,99.019,VALID,-0.019,VALID,19.214,VALID,14.0,VALID,0.0,
2018-11-10, 01:52:06,VALID,916.882,VALID,0.0,VALID,98.984,VALID,-0.021,VALID,19.203,VALID,8.0,VALID,0.0,
2018-11-10, 01:53:06,VALID,916.882,VALID,0.0,VALID,98.997,VALID,-0.014,VALID,19.212,VALID,325.0,VALID,0.0,
2018-11-10, 01:54:06,VALID,916.871,VALID,0.0,VALID,99.02,VALID,-0.01,VALID,19.221,VALID,295.0,VALID,0.0,
2018-11-10, 01:55:06,VALID,916.878,VALID,0.0,VALID,99.003,VALID,-0.009,VALID,19.218,VALID,232.0,VALID,0.0,
2018-11-10, 01:56:06,VALID,916.853,VALID,0.0,VALID,98.986,VALID,-0.013,VALID,19.216,VALID,211.0,VALID,0.0,
2018-11-10, 01:57:06,VALID,916.827,VALID,0.0,VALID,98.959,VALID,-0.006,VALID,19.208,VALID,141.0,VALID,0.0,
2018-11-10, 01:58:06,VALID,916.818,VALID,0.0,VALID,98.909,VALID,0.009,VALID,19.179,VALID,31.0,VALID,0.0,
2018-11-10, 01:59:06,VALID,916.796,VALID,0.0,VALID,98.922,VALID,0.01,VALID,19.19,VALID,17.0,VALID,0.0,
2018-11-10, 02:00:06,VALID,916.797,VALID,0.0,VALID,98.888,VALID,-0.003,VALID,19.199,VALID,13.0,VALID,0.0,
2018-11-10, 02:01:06,VALID,916.766,VALID,0.0,VALID,98.842,VALID,0.003,VALID,19.194,VALID,6.0,VALID,0.0,
2018-11-10, 02:02:06,VALID,916.743,VALID,0.0,VALID,98.861,VALID,0.014,VALID,19.257,VALID,9.0,VALID,0.0,
2018-11-10, 02:03:06,VALID,916.741,VALID,0.0,VALID,98.757,VALID,0.001,VALID,19.307,VALID,1.0,VALID,0.0,
2018-11-10, 02:04:06,VALID,916.75,VALID,0.0,VALID,98.603,VALID,0.005,VALID,19.325,VALID,15.0,VALID,0.0,
2018-11-10, 02:05:06,VALID,916.739,VALID,0.0,VALID,98.482,VALID,-0.004,VALID,19.317,VALID,8.0,VALID,0.0,
2018-11-10, 02:06:06,VALID,916.73,VALID,0.0,VALID,98.429,VALID,-0.015,VALID,19.311,VALID,353.0,VALID,0.0,
2018-11-10, 02:07:06,VALID,916.721,VALID,0.0,VALID,98.378,VALID,-0.035,VALID,19.3,VALID,359.0,VALID,0.0,
2018-11-10, 02:08:06,VALID,916.685,VALID,0.0,VALID,98.347,VALID,-0.015,VALID,19.297,VALID,8.0,VALID,0.0,
2018-11-10, 02:09:06,VALID,916.681,VALID,0.0,VALID,98.264,VALID,-0.012,VALID,19.308,VALID,5.0,VALID,0.0,
2018-11-10, 02:10:06,VALID,916.67,VALID,0.0,VALID,97.947,VALID,0.003,VALID,19.357,VALID,1.0,VALID,0.0,
2018-11-10, 02:11:06,VALID,916.638,VALID,0.0,VALID,97.403,VALID,0.009,VALID,19.453,VALID,2.0,VALID,0.0,
2018-11-10, 02:12:06,VALID,916.642,VALID,0.0,VALID,96.914,VALID,0.002,VALID,19.544,VALID,357.0,VALID,0.0,
2018-11-10, 02:13:06,VALID,916.632,VALID,0.0,VALID,96.54,VALID,-0.006,VALID,19.556,VALID,352.0,VALID,0.0,
2018-11-10, 02:14:06,VALID,916.619,VALID,0.0,VALID,96.355,VALID,-0.011,VALID,19.543,VALID,264.0,VALID,0.0,
2018-11-10, 02:15:06,VALID,916.599,VALID,0.0,VALID,96.508,VALID,-0.005,VALID,19.503,VALID,268.0,VALID,0.0,
2018-11-10, 02:16:06,VALID,916.614,VALID,0.0,VALID,96.858,VALID,-0.006,VALID,19.463,VALID,268.0,VALID,0.0,
2018-11-10, 02:17:06,VALID,916.599,VALID,0.0,VALID,97.048,VALID,0.003,VALID,19.432,VALID,1.0,VALID,0.0,
2018-11-10, 02:18:06,VALID,916.578,VALID,0.0,VALID,97.106,VALID,0.012,VALID,19.412,VALID,25.0,VALID,0.0,
2018-11-10, 02:19:06,VALID,916.573,VALID,0.0,VALID,97.118,VALID,0.01,VALID,19.393,VALID,20.0,VALID,0.0,
2018-11-10, 02:20:06,VALID,916.589,VALID,0.0,VALID,97.168,VALID,0.009,VALID,19.373,VALID,13.0,VALID,0.0,
2018-11-10, 02:21:06,VALID,916.592,VALID,0.0,VALID,97.181,VALID,0.013,VALID,19.358,VALID,268.0,VALID,0.0,
2018-11-10, 02:22:06,VALID,916.6,VALID,0.0,VALID,97.275,VALID,0.014,VALID,19.356,VALID,268.0,VALID,0.0,
2018-11-10, 02:23:06,VALID,916.567,VALID,0.0,VALID,97.366,VALID,0.011,VALID,19.343,VALID,327.0,VALID,0.0,
2018-11-10, 02:24:06,VALID,916.569,VALID,0.0,VALID,97.362,VALID,-0.001,VALID,19.325,VALID,358.0,VALID,0.0,
2018-11-10, 02:25:06,VALID,916.58,VALID,0.0,VALID,97.354,VALID,0.017,VALID,19.296,VALID,360.0,VALID,0.0,
2018-11-10, 02:26:06,VALID,916.597,VALID,0.0,VALID,97.49,VALID,0.013,VALID,19.281,VALID,17.0,VALID,0.0,
2018-11-10, 02:27:06,VALID,916.579,VALID,0.0,VALID,97.651,VALID,0.021,VALID,19.291,VALID,360.0,VALID,0.0,
2018-11-10, 02:28:06,VALID,916.586,VALID,0.0,VALID,97.683,VALID,0.027,VALID,19.294,VALID,229.0,VALID,0.0,
2018-11-10, 02:29:06,VALID,916.576,VALID,0.0,VALID,97.774,VALID,0.019,VALID,19.327,VALID,264.0,VALID,0.0,
2018-11-10, 02:30:06,VALID,916.566,VALID,0.0,VALID,97.735,VALID,0.006,VALID,19.301,VALID,288.0,VALID,0.0,
2018-11-10, 02:31:06,VALID,916.559,VALID,0.0,VALID,97.378,VALID,0.004,VALID,19.285,VALID,331.0,VALID,0.0,
2018-11-10, 02:32:06,VALID,916.56,VALID,0.0,VALID,97.093,VALID,0.011,VALID,19.322,VALID,338.0,VALID,0.0,
2018-11-10, 02:33:06,VALID,916.56,VALID,0.0,VALID,96.758,VALID,0.007,VALID,19.349,VALID,317.0,VALID,0.0,
2018-11-10, 02:34:06,VALID,916.543,VALID,0.0,VALID,96.729,VALID,0.012,VALID,19.393,VALID,233.0,VALID,0.0,
2018-11-10, 02:35:06,VALID,916.561,VALID,0.0,VALID,96.875,VALID,0.014,VALID,19.398,VALID,233.0,VALID,0.0,
2018-11-10, 02:36:06,VALID,916.561,VALID,0.0,VALID,96.873,VALID,0.026,VALID,19.379,VALID,233.0,VALID,0.0,
2018-11-10, 02:37:06,VALID,916.572,VALID,0.0,VALID,96.852,VALID,0.024,VALID,19.372,VALID,233.0,VALID,0.0,
2018-11-10, 02:38:06,VALID,916.533,VALID,0.0,VALID,96.905,VALID,0.027,VALID,19.369,VALID,238.0,VALID,0.0,
2018-11-10, 02:39:06,VALID,916.557,VALID,0.0,VALID,96.782,VALID,0.003,VALID,19.298,VALID,17.0,VALID,0.0,
2018-11-10, 02:40:06,VALID,916.536,VALID,0.0,VALID,96.797,VALID,0.039,VALID,19.217,VALID,23.0,VALID,0.0,
2018-11-10, 02:41:06,VALID,916.552,VALID,0.0,VALID,97.085,VALID,0.032,VALID,19.191,VALID,23.0,VALID,0.0,
2018-11-10, 02:42:06,VALID,916.576,VALID,0.0,VALID,97.181,VALID,0.029,VALID,19.158,VALID,23.0,VALID,0.0,
2018-11-10, 02:43:06,VALID,916.566,VALID,0.0,VALID,97.112,VALID,0.033,VALID,19.129,VALID,23.0,VALID,0.0,
2018-11-10, 02:44:06,VALID,916.563,VALID,0.0,VALID,97.118,VALID,0.041,VALID,19.125,VALID,11.0,VALID,0.0,
2018-11-10, 02:45:06,VALID,916.551,VALID,0.0,VALID,97.08,VALID,0.034,VALID,19.124,VALID,337.0,VALID,0.0,
2018-11-10, 02:46:06,VALID,916.54,VALID,0.0,VALID,97.084,VALID,0.048,VALID,19.127,VALID,332.0,VALID,0.0,
2018-11-10, 02:47:06,VALID,916.516,VALID,0.0,VALID,97.098,VALID,0.035,VALID,19.131,VALID,345.0,VALID,0.0,
2018-11-10, 02:48:06,VALID,916.531,VALID,0.0,VALID,97.079,VALID,0.032,VALID,19.127,VALID,5.0,VALID,0.0,
2018-11-10, 02:49:06,VALID,916.521,VALID,0.0,VALID,97.074,VALID,0.059,VALID,19.122,VALID,6.0,VALID,0.0,
2018-11-10, 02:50:06,VALID,916.518,VALID,0.0,VALID,97.101,VALID,0.044,VALID,19.116,VALID,11.0,VALID,0.0,
2018-11-10, 02:51:06,VALID,916.543,VALID,0.0,VALID,97.258,VALID,0.043,VALID,19.133,VALID,11.0,VALID,0.0,
2018-11-10, 02:52:06,VALID,916.523,VALID,0.0,VALID,97.33,VALID,0.041,VALID,19.12,VALID,352.0,VALID,0.0,
2018-11-10, 02:53:06,VALID,916.521,VALID,0.0,VALID,97.26,VALID,0.044,VALID,19.086,VALID,352.0,VALID,0.0,
2018-11-10, 02:54:06,VALID,916.523,VALID,0.0,VALID,97.282,VALID,0.021,VALID,19.081,VALID,359.0,VALID,0.0,
2018-11-10, 02:55:06,VALID,916.538,VALID,0.0,VALID,97.371,VALID,-0.025,VALID,19.1,VALID,359.0,VALID,0.0,
2018-11-10, 02:56:06,VALID,916.542,VALID,0.0,VALID,97.375,VALID,-0.035,VALID,19.099,VALID,359.0,VALID,0.0,
2018-11-10, 02:57:06,VALID,916.524,VALID,0.0,VALID,97.281,VALID,-0.015,VALID,19.059,VALID,359.0,VALID,0.0,
2018-11-10, 02:58:06,VALID,916.497,VALID,0.0,VALID,97.241,VALID,-0.025,VALID,19.011,VALID,359.0,VALID,0.0,
2018-11-10, 02:59:06,VALID,916.487,VALID,0.0,VALID,97.246,VALID,-0.013,VALID,18.975,VALID,359.0,VALID,0.0,
2018-11-10, 03:00:06,VALID,916.489,VALID,0.0,VALID,97.526,VALID,-0.036,VALID,19.003,VALID,359.0,VALID,0.0,
2018-11-10, 03:01:06,VALID,916.482,VALID,0.0,VALID,97.622,VALID,-0.022,VALID,19.014,VALID,359.0,VALID,0.0,
2018-11-10, 03:02:06,VALID,916.495,VALID,0.0,VALID,97.681,VALID,-0.02,VALID,19.014,VALID,358.0,VALID,0.0,
2018-11-10, 03:03:06,VALID,916.49,VALID,0.0,VALID,97.71,VALID,-0.013,VALID,19.013,VALID,358.0,VALID,0.0,
2018-11-10, 03:04:06,VALID,916.483,VALID,0.0,VALID,97.76,VALID,-0.028,VALID,19.019,VALID,358.0,VALID,0.0,
2018-11-10, 03:05:06,VALID,916.468,VALID,0.0,VALID,97.783,VALID,-0.026,VALID,19.021,VALID,358.0,VALID,0.0,
2018-11-10, 03:06:06,VALID,916.465,VALID,0.0,VALID,97.786,VALID,-0.045,VALID,19.02,VALID,358.0,VALID,0.0,
2018-11-10, 03:07:06,VALID,916.467,VALID,0.0,VALID,97.783,VALID,-0.015,VALID,19.021,VALID,358.0,VALID,0.0,
2018-11-10, 03:08:06,VALID,916.473,VALID,0.0,VALID,97.733,VALID,-0.008,VALID,19.009,VALID,358.0,VALID,0.0,
2018-11-10, 03:09:06,VALID,916.469,VALID,0.0,VALID,97.802,VALID,-0.014,VALID,19.038,VALID,358.0,VALID,0.0,
2018-11-10, 03:10:06,VALID,916.455,VALID,0.0,VALID,97.815,VALID,-0.0,VALID,19.04,VALID,347.0,VALID,0.0,
2018-11-10, 03:11:06,VALID,916.449,VALID,0.0,VALID,97.75,VALID,0.01,VALID,19.015,VALID,346.0,VALID,0.0,
2018-11-10, 03:12:06,VALID,916.458,VALID,0.0,VALID,97.599,VALID,0.01,VALID,18.982,VALID,346.0,VALID,0.0,
2018-11-10, 03:13:06,VALID,916.441,VALID,0.0,VALID,97.574,VALID,0.002,VALID,18.998,VALID,346.0,VALID,0.0,
2018-11-10, 03:14:06,VALID,916.447,VALID,0.0,VALID,97.543,VALID,0.012,VALID,18.995,VALID,343.0,VALID,0.0,
2018-11-10, 03:15:06,VALID,916.44,VALID,0.0,VALID,97.595,VALID,0.011,VALID,19.012,VALID,291.0,VALID,0.0,
2018-11-10, 03:16:06,VALID,916.451,VALID,0.0,VALID,97.695,VALID,0.016,VALID,19.017,VALID,290.0,VALID,0.0,
2018-11-10, 03:17:06,VALID,916.446,VALID,0.0,VALID,97.666,VALID,-0.016,VALID,18.984,VALID,290.0,VALID,0.0,
2018-11-10, 03:18:06,VALID,916.47,VALID,0.0,VALID,97.767,VALID,0.004,VALID,18.982,VALID,290.0,VALID,0.0,
2018-11-10, 03:19:06,VALID,916.435,VALID,0.0,VALID,97.842,VALID,0.01,VALID,18.989,VALID,290.0,VALID,0.0,
2018-11-10, 03:20:06,VALID,916.431,VALID,0.0,VALID,97.874,VALID,0.01,VALID,18.982,VALID,290.0,VALID,0.0,
2018-11-10, 03:21:06,VALID,916.414,VALID,0.0,VALID,97.807,VALID,0.003,VALID,18.938,VALID,290.0,VALID,0.0,
2018-11-10, 03:22:06,VALID,916.401,VALID,0.0,VALID,97.899,VALID,0.004,VALID,18.933,VALID,300.0,VALID,0.0,
2018-11-10, 03:23:06,VALID,916.405,VALID,0.0,VALID,97.991,VALID,-0.003,VALID,18.949,VALID,310.0,VALID,0.0,
2018-11-10, 03:24:07,VALID,916.378,VALID,0.0,VALID,97.996,VALID,0.006,VALID,18.945,VALID,298.0,VALID,0.0,
2018-11-10, 03:25:07,VALID,916.37,VALID,0.0,VALID,97.935,VALID,0.008,VALID,18.961,VALID,303.0,VALID,0.0,
2018-11-10, 03:26:07,VALID,916.36,VALID,0.0,VALID,97.933,VALID,0.01,VALID,18.985,VALID,325.0,VALID,0.0,
2018-11-10, 03:27:07,VALID,916.352,VALID,0.0,VALID,97.773,VALID,0.004,VALID,18.956,VALID,333.0,VALID,0.0,
2018-11-10, 03:28:07,VALID,916.35,VALID,0.0,VALID,97.542,VALID,0.008,VALID,18.914,VALID,335.0,VALID,0.0,
2018-11-10, 03:29:07,VALID,916.339,VALID,0.0,VALID,97.328,VALID,-0.01,VALID,18.913,VALID,341.0,VALID,0.0,
2018-11-10, 03:30:07,VALID,916.342,VALID,0.0,VALID,97.11,VALID,0.001,VALID,18.918,VALID,352.0,VALID,0.0,
2018-11-10, 03:31:07,VALID,916.335,VALID,0.0,VALID,96.932,VALID,-0.009,VALID,18.937,VALID,351.0,VALID,0.0,
2018-11-10, 03:32:07,VALID,916.333,VALID,0.0,VALID,96.652,VALID,0.007,VALID,18.934,VALID,351.0,VALID,0.0,
2018-11-10, 03:33:07,VALID,916.319,VALID,0.0,VALID,96.505,VALID,0.001,VALID,18.948,VALID,352.0,VALID,0.0,
2018-11-10, 03:34:07,VALID,916.334,VALID,0.0,VALID,96.264,VALID,-0.017,VALID,18.955,VALID,357.0,VALID,0.0,
2018-11-10, 03:35:07,VALID,916.343,VALID,0.0,VALID,95.966,VALID,0.003,VALID,18.99,VALID,358.0,VALID,0.0,
2018-11-10, 03:36:07,VALID,916.323,VALID,0.0,VALID,95.927,VALID,0.004,VALID,19.008,VALID,350.0,VALID,0.0,
2018-11-10, 03:37:07,VALID,916.327,VALID,0.0,VALID,95.876,VALID,0.0,VALID,19.011,VALID,333.0,VALID,0.0,
2018-11-10, 03:38:07,VALID,916.336,VALID,0.0,VALID,95.991,VALID,-0.009,VALID,19.013,VALID,325.0,VALID,0.0,
2018-11-10, 03:39:07,VALID,916.323,VALID,0.0,VALID,96.128,VALID,0.004,VALID,19.014,VALID,330.0,VALID,0.0,
2018-11-10, 03:40:07,VALID,916.327,VALID,0.0,VALID,96.255,VALID,0.004,VALID,19.008,VALID,332.0,VALID,0.0,
2018-11-10, 03:41:07,VALID,916.321,VALID,0.0,VALID,96.378,VALID,0.005,VALID,19.002,VALID,332.0,VALID,0.0,
2018-11-10, 03:42:07,VALID,916.33,VALID,0.0,VALID,96.408,VALID,0.009,VALID,18.996,VALID,341.0,VALID,0.0,